When you browse on this site, cookies collect data to enhance your experience and personalize the content and advertising you see.
Visit our Privacy Policy to learn more. By continuing to use the site, you agree to this use of cookies and data.
  • In Austria
  • List of Countries
  • For 7 days
  • Water Temperature
  • Satellite Maps
  • Weather Map
  • News
  • Weather Widgets
  • user-avatar
    Login

    Hourly Weather Mingachevir

    Today, 26 May, Sunday

    Time Temperature Precipitation Wind Pressure Humidity
    00:00 +25°C° 0.2 mm 4 mps 750 mmHg 62%
    01:00 +23°C° 0 mm 5 mps 750 mmHg 60%
    02:00 +23°C° 0 mm 5 mps 750 mmHg 58%
    03:00 +23°C° 0 mm 6 mps 750 mmHg 56%
    04:00 +23°C° 0 mm 6 mps 750 mmHg 57%
    05:00 +23°C° 0 mm 6 mps 750 mmHg 58%
    06:00 +23°C° 0 mm 6 mps 750 mmHg 59%
    07:00 +26°C° 0 mm 6 mps 750 mmHg 53%
    08:00 +27°C° 0 mm 7 mps 750 mmHg 47%
    09:00 +29°C° 0 mm 7 mps 750 mmHg 41%
    10:00 +30°C° 0.1 mm 7 mps 749 mmHg 38%
    11:00 +32°C° 0.1 mm 6 mps 749 mmHg 35%
    12:00 +33°C° 0.1 mm 6 mps 749 mmHg 32%
    13:00 +34°C° 0.6 mm 5 mps 748 mmHg 31%
    14:00 +34°C° 0.6 mm 4 mps 748 mmHg 31%
    15:00 +34°C° 0.6 mm 3 mps 748 mmHg 30%
    16:00 +32°C° 0.7 mm 2 mps 748 mmHg 35%
    17:00 +31°C° 0.7 mm 2 mps 748 mmHg 41%
    18:00 +29°C° 0.7 mm 2 mps 749 mmHg 46%
    19:00 +28°C° 0.1 mm 3 mps 750 mmHg 48%
    20:00 +26°C° 0.1 mm 4 mps 750 mmHg 50%
    21:00 +25°C° 0.1 mm 5 mps 751 mmHg 52%
    22:00 +23°C° 0 mm 5 mps 752 mmHg 51%
    23:00 +23°C° 0 mm 5 mps 752 mmHg 51%

    Tomorrow, 27 May, Monday

    Time Temperature Precipitation Wind Pressure Humidity
    00:00 +22°C° 0 mm 5 mps 752 mmHg 50%
    01:00 +22°C° 0 mm 6 mps 752 mmHg 51%
    02:00 +21°C° 0 mm 6 mps 752 mmHg 51%
    03:00 +21°C° 0 mm 7 mps 752 mmHg 52%
    04:00 +21°C° 0 mm 7 mps 752 mmHg 53%
    05:00 +21°C° 0 mm 7 mps 753 mmHg 54%
    06:00 +21°C° 0 mm 7 mps 753 mmHg 55%
    07:00 +23°C° 0 mm 7 mps 753 mmHg 49%
    08:00 +24°C° 0 mm 7 mps 753 mmHg 44%
    09:00 +27°C° 0 mm 7 mps 753 mmHg 38%
    10:00 +28°C° 0 mm 6 mps 753 mmHg 35%
    11:00 +29°C° 0 mm 5 mps 753 mmHg 32%
    12:00 +32°C° 0 mm 5 mps 753 mmHg 28%
    13:00 +31°C° 0.1 mm 3 mps 753 mmHg 28%
    14:00 +31°C° 0.1 mm 2 mps 752 mmHg 27%
    15:00 +32°C° 0.1 mm 1 mps 752 mmHg 26%
    16:00 +31°C° 0.1 mm 1 mps 752 mmHg 30%
    17:00 +30°C° 0.1 mm 1 mps 753 mmHg 33%
    18:00 +30°C° 0.1 mm 2 mps 753 mmHg 37%
    19:00 +28°C° 0 mm 3 mps 754 mmHg 44%
    20:00 +26°C° 0 mm 4 mps 754 mmHg 52%
    21:00 +23°C° 0 mm 6 mps 755 mmHg 59%
    22:00 +22°C° 0 mm 5 mps 755 mmHg 61%
    23:00 +22°C° 0 mm 3 mps 756 mmHg 63%

    Day after tomorrow, 28 May, Tuesday

    Time Temperature Precipitation Wind Pressure Humidity
    00:00 +21°C° 0 mm 2 mps 756 mmHg 64%
    01:00 +21°C° 0 mm 2 mps 756 mmHg 65%
    02:00 +21°C° 0 mm 1 mps 756 mmHg 66%
    03:00 +21°C° 0 mm 1 mps 756 mmHg 67%
    04:00 +21°C° 0 mm 1 mps 756 mmHg 66%
    05:00 +22°C° 0 mm 1 mps 756 mmHg 65%
    06:00 +22°C° 0 mm 1 mps 756 mmHg 64%
    07:00 +23°C° 0.2 mm 1 mps 756 mmHg 59%
    08:00 +24°C° 0.2 mm 1 mps 756 mmHg 55%
    09:00 +25°C° 0.2 mm 1 mps 756 mmHg 50%
    10:00 +27°C° 0 mm 2 mps 756 mmHg 46%
    11:00 +28°C° 0 mm 2 mps 756 mmHg 43%
    12:00 +29°C° 0 mm 3 mps 755 mmHg 39%
    13:00 +29°C° 0 mm 4 mps 755 mmHg 38%
    14:00 +30°C° 0 mm 4 mps 755 mmHg 37%
    15:00 +32°C° 0 mm 5 mps 754 mmHg 36%
    16:00 +30°C° 0 mm 5 mps 754 mmHg 39%
    17:00 +29°C° 0 mm 5 mps 755 mmHg 42%
    18:00 +29°C° 0 mm 5 mps 755 mmHg 44%
    19:00 +27°C° 0 mm 5 mps 755 mmHg 47%
    20:00 +26°C° 0 mm 5 mps 756 mmHg 49%
    21:00 +25°C° 0 mm 5 mps 756 mmHg 52%
    22:00 +23°C° 0 mm 4 mps 756 mmHg 55%
    23:00 +22°C° 0 mm 3 mps 756 mmHg 57%

    29 May, Wednesday

    Time Temperature Precipitation Wind Pressure Humidity
    00:00 +22°C° 0 mm 3 mps 756 mmHg 60%
    01:00 +21°C° 0 mm 2 mps 756 mmHg 62%
    02:00 +21°C° 0 mm 2 mps 756 mmHg 64%
    03:00 +21°C° 0 mm 1 mps 756 mmHg 67%
    04:00 +21°C° 0 mm 1 mps 756 mmHg 66%
    05:00 +22°C° 0 mm 1 mps 756 mmHg 64%
    06:00 +20°C° 0 mm 0 mps 756 mmHg 63%
    07:00 +24°C° 0 mm 1 mps 756 mmHg 58%
    08:00 +25°C° 0 mm 1 mps 756 mmHg 53%
    09:00 +26°C° 0 mm 1 mps 756 mmHg 48%
    10:00 +27°C° 0 mm 1 mps 755 mmHg 45%
    11:00 +28°C° 0 mm 2 mps 755 mmHg 42%
    12:00 +29°C° 0 mm 2 mps 754 mmHg 39%
    13:00 +30°C° 0 mm 2 mps 754 mmHg 37%
    14:00 +30°C° 0 mm 3 mps 754 mmHg 36%
    15:00 +31°C° 0 mm 3 mps 753 mmHg 34%
    16:00 +31°C° 0 mm 3 mps 753 mmHg 35%
    17:00 +30°C° 0 mm 3 mps 753 mmHg 37%
    18:00 +30°C° 0 mm 3 mps 753 mmHg 38%
    19:00 +29°C° 0 mm 3 mps 754 mmHg 41%
    20:00 +27°C° 0 mm 3 mps 754 mmHg 44%
    21:00 +26°C° 0 mm 3 mps 755 mmHg 47%
    22:00 +25°C° 0 mm 3 mps 754 mmHg 50%
    23:00 +24°C° 0 mm 3 mps 754 mmHg 52%

    30 May, Thursday

    Time Temperature Precipitation Wind Pressure Humidity
    00:00 +23°C° 0 mm 2 mps 754 mmHg 55%
    01:00 +23°C° 0 mm 2 mps 754 mmHg 57%
    02:00 +22°C° 0 mm 1 mps 754 mmHg 60%
    03:00 +22°C° 0 mm 1 mps 754 mmHg 62%
    04:00 +22°C° 0 mm 1 mps 754 mmHg 61%
    05:00 +23°C° 0 mm 1 mps 754 mmHg 59%
    06:00 +23°C° 0 mm 1 mps 754 mmHg 57%
    07:00 +25°C° 0 mm 1 mps 754 mmHg 53%
    08:00 +26°C° 0 mm 1 mps 754 mmHg 48%
    09:00 +27°C° 0 mm 1 mps 754 mmHg 44%
    10:00 +28°C° 0 mm 1 mps 753 mmHg 41%
    11:00 +30°C° 0 mm 2 mps 753 mmHg 38%
    12:00 +31°C° 0 mm 2 mps 752 mmHg 35%
    13:00 +31°C° 0 mm 2 mps 752 mmHg 34%
    14:00 +33°C° 0 mm 3 mps 752 mmHg 32%
    15:00 +34°C° 0 mm 3 mps 751 mmHg 31%
    16:00 +33°C° 0 mm 3 mps 752 mmHg 32%
    17:00 +33°C° 0 mm 3 mps 752 mmHg 33%
    18:00 +31°C° 0 mm 3 mps 752 mmHg 35%
    19:00 +30°C° 0 mm 3 mps 752 mmHg 39%
    20:00 +28°C° 0 mm 4 mps 753 mmHg 43%
    21:00 +26°C° 0 mm 4 mps 753 mmHg 47%
    22:00 +25°C° 0 mm 4 mps 753 mmHg 49%
    23:00 +24°C° 0 mm 3 mps 753 mmHg 52%

    31 May, Friday

    Time Temperature Precipitation Wind Pressure Humidity
    00:00 +23°C° 0 mm 2 mps 753 mmHg 55%
    01:00 +23°C° 0 mm 2 mps 753 mmHg 57%
    02:00 +22°C° 0 mm 1 mps 753 mmHg 60%
    03:00 +22°C° 0 mm 1 mps 753 mmHg 63%
    04:00 +22°C° 0 mm 1 mps 753 mmHg 61%
    05:00 +23°C° 0 mm 1 mps 753 mmHg 59%
    06:00 +24°C° 0 mm 1 mps 753 mmHg 57%
    07:00 +25°C° 0 mm 1 mps 753 mmHg 51%
    08:00 +27°C° 0 mm 1 mps 753 mmHg 45%
    09:00 +28°C° 0 mm 1 mps 753 mmHg 39%
    10:00 +29°C° 0 mm 2 mps 753 mmHg 36%
    11:00 +31°C° 0 mm 2 mps 752 mmHg 33%
    12:00 +32°C° 0 mm 2 mps 752 mmHg 29%
    13:00 +33°C° 0 mm 3 mps 752 mmHg 28%
    14:00 +34°C° 0 mm 3 mps 751 mmHg 27%
    15:00 +35°C° 0 mm 4 mps 751 mmHg 26%
    16:00 +34°C° 0 mm 3 mps 751 mmHg 28%
    17:00 +34°C° 0 mm 3 mps 751 mmHg 29%
    18:00 +33°C° 0 mm 3 mps 751 mmHg 31%
    19:00 +30°C° 0 mm 3 mps 752 mmHg 34%
    20:00 +29°C° 0 mm 3 mps 752 mmHg 37%
    21:00 +27°C° 0 mm 3 mps 752 mmHg 40%
    22:00 +26°C° 0 mm 3 mps 752 mmHg 42%
    23:00 +25°C° 0 mm 3 mps 752 mmHg 44%
    Show more